Location: Brotuna
(46.2000°N, 22.6000°E)
Time: 02:12:46
(UTC+00:00)

Meteor 1-11 - Pass Details

Date: 09 April 2020
Orbit: 841 x 886 km, 81.2° (Epoch: 03 June)

Event Time Altitude Azimuth Distance (km) Brightness Sun altitude
Rises 17:52:17 0° 351° (N) 3,484 7.8 -7.9°
Reaches altitude 10° 17:54:47 10° 354° (N) 2,535 7.1 -8.3°
Maximum altitude 18:00:30 64° 76° (ENE) 959 4.3 -9.3°
Drops below altitude 10° 18:06:07 10° 158° (SSE) 2,487 6.2 -10.2°
Enters shadow 18:08:30 - 161° (SSE) 3,397 6.9 -10.5°
